Overview Statistics Trail Chart Weather Telemetry Raw packets
 

This is the latest recevied weather packets stored in our database for station/object HG8LXL-2. If no packets are shown the sender has not sent any weather packets the latest 10 day(s).

<< 28 29 30 31 32 >>
Time Temp. Humidity Pressure Rain* Wind** Luminosity Snow
1788228352 22.78° C 66% 1013 hPa - - - -
1788228051 22.78° C 67% 1013 hPa - - - -
1788227754 22.78° C 66% 1013.1 hPa - - - -
1788227451 22.78° C 66% 1013.1 hPa - - - -
1788227151 23.33° C 65% 1013.1 hPa - - - -
1788226851 23.33° C 64% 1012.9 hPa - - - -
1788226551 23.89° C 63% 1012.6 hPa - - - -
1788226251 23.89° C 62% 1012.4 hPa - - - -
1788225951 23.89° C 61% 1012.5 hPa - - - -
1788225651 23.89° C 61% 1012.7 hPa - - - -
1788225350 23.89° C 62% 1013 hPa - - - -
1788225051 23.89° C 62% 1013.1 hPa - - - -
1788224751 23.89° C 62% 1013.3 hPa - - - -
1788224451 23.89° C 62% 1013.4 hPa - - - -
1788224151 23.89° C 64% 1013.5 hPa - - - -
1788223851 23.89° C 62% 1013.8 hPa - - - -
1788223556 24.44° C 64% 1013.6 hPa - - - -
1788223251 23.89° C 66% 1013.4 hPa - - - -
1788222951 23.89° C 69% 1013.5 hPa - - - -
1788222650 23.89° C 66% 1013.3 hPa - - - -
1788222351 23.89° C 67% 1013.6 hPa - - - -
1788222051 23.89° C 67% 1013.8 hPa - - - -
1788221751 23.89° C 66% 1014 hPa - - - -
1788221451 25° C 60% 1014 hPa - - - -
1788221152 25° C 60% 1014 hPa - - - -

* Rain since midnight (hover to see other rain measurements)
** Current wind speed in m/s (hover to see current wind gust speed)